This is the latest recevied weather packets stored in our database for station/object K1ZK-13. If no packets are shown the sender has not sent any weather packets the latest 10 day(s).
| Time | Temp. | Humidity | Pressure | Rain* | Wind** | Luminosity | Snow |
|---|---|---|---|---|---|---|---|
| 1777527131 | 11.11° C | 93% | 1006.7 hPa | 0 mm | - | 0 W/m² | - |
| 1777526827 | 11.11° C | 92% | 1006.7 hPa | 0 mm | - | 0 W/m² | - |
| 1777526522 | 11.11° C | 91% | 1006.8 hPa | 3.05 mm | - | 0 W/m² | - |
| 1777526217 | 11.11° C | 91% | 1006.7 hPa | 3.05 mm | - | 0 W/m² | - |
| 1777525308 | 11.67° C | 90% | 1007 hPa | 1.78 mm | - | 0 W/m² | - |
| 1777525003 | 11.67° C | 90% | 1007.2 hPa | 3.05 mm | - | 0 W/m² | - |
| 1777524701 | 11.67° C | 88% | 1007.1 hPa | 1.27 mm | - | 0 W/m² | - |
| 1777524399 | 12.22° C | 87% | 1007.2 hPa | 1.78 mm | - | 0 W/m² | - |
| 1777524094 | 12.22° C | 86% | 1007.3 hPa | 1.78 mm | - | 0 W/m² | - |
| 1777523792 | 12.22° C | 84% | 1007.3 hPa | 0 mm | - | 0 W/m² | - |
| 1777523488 | 12.78° C | 82% | 1007.2 hPa | 0 mm | - | 0 W/m² | - |
| 1777523184 | 13.33° C | 78% | 1007.4 hPa | 0 mm | - | 0 W/m² | - |
| 1777522880 | 13.33° C | 74% | 1007.5 hPa | 0 mm | - | 0 W/m² | - |
| 1777522577 | 13.89° C | 70% | 1007.6 hPa | 0 mm | - | 0 W/m² | - |
| 1777522275 | 13.89° C | 69% | 1007.4 hPa | 0 mm | - | 0 W/m² | - |
| 1777521971 | 14.44° C | 67% | 1007.4 hPa | 0 mm | - | 0 W/m² | - |
| 1777521668 | 14.44° C | 66% | 1007.5 hPa | 0 mm | - | 0 W/m² | - |
| 1777521365 | 14.44° C | 65% | 1007.6 hPa | 0 mm | - | 0 W/m² | - |
| 1777521061 | 14.44° C | 62% | 1007.6 hPa | 0 mm | - | 0 W/m² | - |
| 1777520759 | 14.44° C | 62% | 1007.3 hPa | 0 mm | - | 0 W/m² | - |
| 1777520456 | 15° C | 60% | 1007.6 hPa | 0 mm | - | 0 W/m² | - |
| 1777520153 | 15° C | 59% | 1007.4 hPa | 0 mm | - | 0 W/m² | - |
| 1777519851 | 15° C | 59% | 1007.2 hPa | 0 mm | - | 0 W/m² | - |
| 1777519548 | 15° C | 60% | 1007.4 hPa | 0 mm | - | 0 W/m² | - |
| 1777519244 | 15° C | 59% | 1007.3 hPa | 0 mm | - | 0 W/m² | - |
* Rain latest hour (hover to see other rain measurements)
** Current wind speed in m/s (hover to see current wind gust speed)